Location: Ahstedt
(52.2048°N, 10.1060°E)
Time: 00:36:47
(UTC+00:00)

Cosmos 2082 Rocket - Pass Details

Date: 18 January 2026
Orbit: 831 x 853 km, 71.0° (Epoch: 18 February)

Event Time Altitude Azimuth Distance (km) Brightness Sun altitude
Exits shadow 05:53:54 16° 303° (WNW) 2,072 3.6 -12.5°
Maximum altitude 05:57:17 28° 255° (WSW) 1,544 3.1 -12.1°
Drops below altitude 10° 06:02:00 10° 199° (SSW) 2,471 4.6 -11.4°
Sets 06:04:46 0° 188° (S) 3,405 5.5 -11.0°
